EST,Max TemperatureF,Mean TemperatureF,Min TemperatureF,Max Dew PointF,MeanDew PointF,Min DewpointF,Max Humidity, Mean Humidity, Min Humidity, Max Sea Level PressureIn, Mean Sea Level PressureIn, Min Sea Level PressureIn, Max VisibilityMiles, Mean VisibilityMiles, Min VisibilityMiles, Max Wind SpeedMPH, Mean Wind SpeedMPH, Max Gust SpeedMPH,PrecipitationIn, CloudCover, Events, WindDirDegrees
2013-1-1,75,60,46,57,54,46,100,80,47,30.23,30.14,30.07,10,8,3,14,3,17,0.00,3,,191
2013-1-2,78,64,50,66,59,50,100,82,47,30.10,30.06,30.00,10,7,1,12,2,,0.00,3,,245
2013-1-3,75,66,57,66,62,57,100,87,61,30.20,30.11,30.06,9,4,0,12,3,,0.04,8,Fog-Rain,13
2013-1-4,60,58,55,59,57,55,100,96,82,30.30,30.24,30.17,10,9,2,10,7,,0.00,8,,15
2013-1-5,73,64,55,61,57,52,100,79,57,30.32,30.26,30.20,10,8,5,10,7,,0.00,6,,37
2013-1-6,78,70,62,70,65,61,100,87,57,30.23,30.15,30.08,10,6,0,12,4,,0.37,6,Fog-Rain,88
2013-1-7,68,62,57,66,58,52,100,84,64,30.24,30.18,30.13,10,8,4,13,7,17,0.00,7,,31
2013-1-8,80,70,60,66,64,61,100,83,54,30.25,30.19,30.15,10,9,5,9,6,,0.00,4,,67
2013-1-9,82,74,66,70,67,63,100,81,51,30.32,30.26,30.21,10,7,2,14,7,16,0.00,2,,101
2013-1-10,80,72,64,70,63,59,100,74,51,30.33,30.29,30.23,10,7,1,16,8,24,0.00,4,,94
2013-1-11,78,69,60,70,64,61,100,86,57,30.29,30.23,30.18,10,8,0,16,5,17,0.00,2,Fog,107
2013-1-12,80,68,57,66,61,57,100,76,51,30.22,30.16,30.11,10,6,0,13,3,17,0.00,2,Fog,98
2013-1-13,80,68,57,66,62,57,100,81,45,30.19,30.13,30.09,10,8,1,10,5,,0.00,1,,113
2013-1-14,80,68,55,64,60,55,100,77,47,30.22,30.17,30.13,10,6,0,12,3,16,0.00,3,Fog-Rain,121
2013-1-15,80,68,55,68,61,55,100,77,47,30.17,30.12,30.08,10,7,0,12,3,,0.00,4,Fog,124
2013-1-16,80,70,57,64,59,55,100,76,42,30.13,30.07,30.03,10,9,0,9,3,16,0.00,2,Fog,157
2013-1-17,77,66,55,66,57,43,100,85,63,30.14,30.06,30.02,10,7,0,21,6,29,0.00,6,Fog-Rain,255
2013-1-18,62,50,39,59,45,32,94,75,59,30.31,30.25,30.15,10,9,2,17,11,24,0.00,6,Rain,359
2013-1-19,73,63,53,61,55,48,94,75,57,30.29,30.22,30.15,10,8,3,15,8,21,0.00,7,,26
2013-1-20,73,66,59,59,58,54,100,81,60,30.20,30.13,30.07,10,8,5,10,6,,0.00,4,,28
2013-1-21,69,64,60,64,57,54,94,75,60,30.12,30.07,30.03,10,9,4,8,4,,0.11,6,,3
2013-1-22,64,55,44,54,40,32,82,54,30,30.30,30.20,30.09,10,9,8,15,6,21,0.00,1,,360
2013-1-23,68,55,42,43,34,28,87,50,23,30.39,30.33,30.29,10,10,7,12,4,,0.00,0,,20
2013-1-24,71,55,39,52,43,37,100,66,35,30.36,30.30,30.25,10,9,4,10,3,,0.00,0,,313
2013-1-25,73,58,42,57,46,43,100,70,33,30.34,30.27,30.20,10,6,0,9,2,,0.00,1,Fog,206
2013-1-26,73,57,41,54,48,41,100,74,38,30.31,30.25,30.19,10,8,3,9,2,,0.00,0,,313
2013-1-27,77,62,46,61,52,46,100,76,41,30.34,30.29,30.24,10,7,0,13,3,17,0.00,1,Fog-Rain,70
2013-1-28,78,68,57,66,62,57,100,81,57,30.36,30.30,30.24,9,6,0,15,5,18,0.00,3,Fog,70
2013-1-29,82,72,62,70,65,61,100,75,51,30.28,30.20,30.12,10,5,0,13,6,18,0.00,4,Fog,109
2013-1-30,82,71,60,66,63,59,100,75,48,30.14,30.02,29.94,10,7,0,22,7,29,0.00,1,Fog,171
2013-1-31,68,57,46,66,42,27,100,62,27,30.26,30.13,29.94,10,9,1,17,9,31,0.05,2,Rain,310